• In Belgium
  • List of Countries
  • For 7 days
  • Water Temperature
  • Satellite Maps
  • Weather Map
  • Weather Widgets
  • user-avatar
    Login

    Hourly Weather Newcastle

    Today, 21 August, Monday

    Time Temperature Precipitation Wind Pressure Humidity
    00:00 +8°C° 0.1 mm 2 mps 765 mmHg 96%
    01:00 +7°C° 0.1 mm 2 mps 765 mmHg 96%
    02:00 +7°C° 0 mm 2 mps 765 mmHg 96%
    03:00 +7°C° 0 mm 2 mps 764 mmHg 96%
    04:00 +7°C° 0 mm 2 mps 764 mmHg 96%
    05:00 +7°C° 0 mm 2 mps 764 mmHg 94%
    06:00 +8°C° 0 mm 1 mps 764 mmHg 92%
    07:00 +9°C° 0 mm 1 mps 764 mmHg 90%
    08:00 +10°C° 0 mm 2 mps 764 mmHg 78%
    09:00 +14°C° 0 mm 2 mps 763 mmHg 66%
    10:00 +16°C° 0 mm 2 mps 763 mmHg 59%
    11:00 +16°C° 0 mm 3 mps 763 mmHg 56%
    12:00 +17°C° 0 mm 3 mps 763 mmHg 54%
    13:00 +17°C° 0 mm 4 mps 762 mmHg 51%
    14:00 +17°C° 0 mm 4 mps 762 mmHg 50%
    15:00 +17°C° 0 mm 3 mps 762 mmHg 49%
    16:00 +17°C° 0 mm 2 mps 761 mmHg 50%
    17:00 +16°C° 0 mm 2 mps 761 mmHg 54%
    18:00 +14°C° 0 mm 2 mps 762 mmHg 57%
    19:00 +13°C° 0 mm 2 mps 762 mmHg 61%
    20:00 +13°C° 0 mm 2 mps 762 mmHg 63%
    21:00 +12°C° 0 mm 2 mps 762 mmHg 65%
    22:00 +10°C° 0 mm 2 mps 762 mmHg 68%
    23:00 +10°C° 0 mm 2 mps 762 mmHg 67%

    Tomorrow, 22 August, Tuesday

    Time Temperature Precipitation Wind Pressure Humidity
    00:00 +10°C° 0 mm 2 mps 762 mmHg 67%
    01:00 +10°C° 0 mm 2 mps 762 mmHg 67%
    02:00 +10°C° 0 mm 2 mps 762 mmHg 67%
    03:00 +10°C° 0 mm 2 mps 762 mmHg 67%
    04:00 +9°C° 0 mm 2 mps 762 mmHg 67%
    05:00 +10°C° 0 mm 1 mps 762 mmHg 70%
    06:00 +9°C° 0 mm 1 mps 763 mmHg 72%
    07:00 +9°C° 0 mm 1 mps 763 mmHg 74%
    08:00 +12°C° 0 mm 1 mps 763 mmHg 64%
    09:00 +15°C° 0 mm 1 mps 763 mmHg 54%
    10:00 +20°C° 0 mm 1 mps 763 mmHg 44%
    11:00 +19°C° 0 mm 2 mps 763 mmHg 42%
    12:00 +20°C° 0 mm 2 mps 762 mmHg 40%
    13:00 +21°C° 0 mm 2 mps 762 mmHg 38%
    14:00 +20°C° 0 mm 2 mps 762 mmHg 42%
    15:00 +20°C° 0 mm 3 mps 762 mmHg 47%
    16:00 +19°C° 0 mm 3 mps 762 mmHg 51%
    17:00 +17°C° 0 mm 3 mps 763 mmHg 63%
    18:00 +15°C° 0 mm 2 mps 763 mmHg 74%
    19:00 +13°C° 0 mm 2 mps 764 mmHg 86%
    20:00 +12°C° 0 mm 2 mps 764 mmHg 88%
    21:00 +12°C° 0 mm 2 mps 765 mmHg 90%
    22:00 +11°C° 0 mm 1 mps 765 mmHg 92%
    23:00 +11°C° 0 mm 1 mps 765 mmHg 93%

    Day after tomorrow, 23 August, Wednesday

    Time Temperature Precipitation Wind Pressure Humidity
    00:00 +10°C° 0 mm 1 mps 765 mmHg 94%
    01:00 +10°C° 0 mm 1 mps 765 mmHg 95%
    02:00 +10°C° 0 mm 1 mps 765 mmHg 95%
    03:00 +10°C° 0 mm 1 mps 765 mmHg 95%
    04:00 +9°C° 0 mm 1 mps 764 mmHg 95%
    05:00 +9°C° 0 mm 1 mps 765 mmHg 94%
    06:00 +8°C° 0 mm 2 mps 765 mmHg 93%
    07:00 +8°C° 0 mm 2 mps 765 mmHg 92%
    08:00 +13°C° 0 mm 2 mps 765 mmHg 79%
    09:00 +16°C° 0 mm 2 mps 764 mmHg 66%
    10:00 +19°C° 0 mm 2 mps 764 mmHg 54%
    11:00 +21°C° 0 mm 2 mps 764 mmHg 49%
    12:00 +22°C° 0 mm 3 mps 763 mmHg 44%
    13:00 +25°C° 0 mm 3 mps 762 mmHg 39%
    14:00 +24°C° 0 mm 3 mps 762 mmHg 41%
    15:00 +23°C° 0 mm 4 mps 761 mmHg 42%
    16:00 +23°C° 0 mm 4 mps 761 mmHg 44%
    17:00 +20°C° 0 mm 5 mps 761 mmHg 55%
    18:00 +17°C° 0 mm 5 mps 762 mmHg 65%
    19:00 +15°C° 0 mm 5 mps 762 mmHg 75%
    20:00 +14°C° 0.1 mm 5 mps 762 mmHg 80%
    21:00 +14°C° 0.1 mm 5 mps 762 mmHg 84%
    22:00 +13°C° 0.1 mm 5 mps 762 mmHg 88%
    23:00 +12°C° 0.2 mm 4 mps 762 mmHg 86%

    24 August, Thursday

    Time Temperature Precipitation Wind Pressure Humidity
    00:00 +11°C° 0.2 mm 4 mps 761 mmHg 84%
    01:00 +11°C° 0.2 mm 4 mps 761 mmHg 82%
    02:00 +10°C° 0 mm 4 mps 761 mmHg 81%
    03:00 +10°C° 0 mm 4 mps 761 mmHg 80%
    04:00 +8°C° 0 mm 4 mps 761 mmHg 79%
    05:00 +8°C° 0 mm 4 mps 761 mmHg 78%
    06:00 +8°C° 0 mm 4 mps 761 mmHg 77%
    07:00 +8°C° 0 mm 4 mps 762 mmHg 77%
    08:00 +11°C° 0 mm 4 mps 761 mmHg 66%
    09:00 +14°C° 0 mm 4 mps 761 mmHg 56%
    10:00 +17°C° 0 mm 4 mps 761 mmHg 46%
    11:00 +17°C° 0 mm 5 mps 761 mmHg 44%
    12:00 +19°C° 0 mm 5 mps 760 mmHg 42%
    13:00 +20°C° 0 mm 5 mps 760 mmHg 40%
    14:00 +19°C° 0.1 mm 6 mps 760 mmHg 48%
    15:00 +17°C° 0.1 mm 6 mps 760 mmHg 57%
    16:00 +16°C° 0.1 mm 7 mps 760 mmHg 65%
    17:00 +14°C° 0.3 mm 6 mps 761 mmHg 72%
    18:00 +13°C° 0.3 mm 6 mps 761 mmHg 79%
    19:00 +11°C° 0.3 mm 6 mps 762 mmHg 86%
    20:00 +10°C° 0.6 mm 5 mps 762 mmHg 89%
    21:00 +10°C° 0.6 mm 5 mps 763 mmHg 91%
    22:00 +10°C° 0.6 mm 5 mps 763 mmHg 93%
    23:00 +10°C° 0.5 mm 5 mps 763 mmHg 93%

    25 August, Friday

    Time Temperature Precipitation Wind Pressure Humidity
    00:00 +9°C° 0.5 mm 6 mps 763 mmHg 92%
    01:00 +9°C° 0.5 mm 6 mps 762 mmHg 92%
    02:00 +9°C° 0.3 mm 6 mps 762 mmHg 91%
    03:00 +8°C° 0.3 mm 6 mps 762 mmHg 90%
    04:00 +8°C° 0.3 mm 7 mps 762 mmHg 89%
    05:00 +8°C° 0.3 mm 7 mps 763 mmHg 87%
    06:00 +8°C° 0.3 mm 7 mps 763 mmHg 86%
    07:00 +6°C° 0.3 mm 7 mps 764 mmHg 85%
    08:00 +9°C° 0.6 mm 7 mps 764 mmHg 77%
    09:00 +11°C° 0.6 mm 7 mps 764 mmHg 70%
    10:00 +14°C° 0.6 mm 7 mps 764 mmHg 62%
    11:00 +14°C° 0.5 mm 7 mps 764 mmHg 63%
    12:00 +14°C° 0.5 mm 7 mps 764 mmHg 63%
    13:00 +15°C° 0.5 mm 7 mps 763 mmHg 64%
    14:00 +15°C° 0.4 mm 7 mps 763 mmHg 65%
    15:00 +15°C° 0.4 mm 7 mps 763 mmHg 66%
    16:00 +15°C° 0.4 mm 6 mps 763 mmHg 67%
    17:00 +13°C° 0.2 mm 6 mps 764 mmHg 73%
    18:00 +12°C° 0.2 mm 5 mps 765 mmHg 79%
    19:00 +9°C° 0.2 mm 5 mps 765 mmHg 86%
    20:00 +9°C° 0.1 mm 5 mps 766 mmHg 87%
    21:00 +8°C° 0.1 mm 4 mps 766 mmHg 88%
    22:00 +8°C° 0.1 mm 4 mps 766 mmHg 89%
    23:00 +8°C° 0 mm 4 mps 766 mmHg 90%

    26 August, Saturday

    Time Temperature Precipitation Wind Pressure Humidity
    00:00 +7°C° 0 mm 4 mps 766 mmHg 91%
    01:00 +7°C° 0 mm 4 mps 766 mmHg 92%
    02:00 +7°C° 0 mm 4 mps 766 mmHg 93%
    03:00 +6°C° 0 mm 4 mps 766 mmHg 94%
    04:00 +6°C° 0 mm 4 mps 766 mmHg 94%
    05:00 +6°C° 0 mm 4 mps 766 mmHg 93%
    06:00 +6°C° 0 mm 4 mps 766 mmHg 93%
    07:00 +6°C° 0 mm 4 mps 767 mmHg 92%
    08:00 +10°C° 0 mm 4 mps 767 mmHg 78%
    09:00 +13°C° 0 mm 4 mps 767 mmHg 64%
    10:00 +15°C° 0 mm 4 mps 767 mmHg 50%
    11:00 +18°C° 0 mm 3 mps 766 mmHg 45%
    12:00 +19°C° 0 mm 3 mps 766 mmHg 39%
    13:00 +20°C° 0 mm 3 mps 765 mmHg 34%
    14:00 +20°C° 0 mm 3 mps 765 mmHg 37%
    15:00 +19°C° 0 mm 3 mps 765 mmHg 40%
    16:00 +19°C° 0 mm 3 mps 765 mmHg 43%
    17:00 +16°C° 0 mm 3 mps 766 mmHg 56%
    18:00 +13°C° 0 mm 3 mps 766 mmHg 70%
    19:00 +10°C° 0 mm 3 mps 767 mmHg 83%
    20:00 +10°C° 0 mm 3 mps 767 mmHg 84%
    21:00 +10°C° 0 mm 3 mps 767 mmHg 85%
    22:00 +9°C° 0 mm 3 mps 768 mmHg 86%
    23:00 +9°C° 0 mm 3 mps 767 mmHg 87%
    Show more